Wind_Speed
38 37 36 34 32 29 27 26 25 26 25 22 21 22 22 23 25 24 21 22 23 23 21 20 20 21 23 20 13 9 7 6 9 8 8 11 11 16 7 17 14 14 16
39 34 31 31 28 25 24 24 24 22 20 20 19 19 20 20 21 19 20 20 22 20 20 21 21 19 21 11 12 10 11 10 8 8 10 9 11 14 12 14 14 14 17
31 29 28 25 21 22 23 22 19 18 19 17 17 19 19 19 19 20 19 19 19 19 21 21 23 25 19 12 12 11 13 10 11 11 10 9 11 12 17 14 13 16 19
27 26 24 21 19 21 21 18 17 17 15 16 17 19 20 21 22 21 19 19 18 19 20 17 16 15 15 15 16 13 12 12 13 12 11 8 14 18 16 16 15 16 20
25 22 22 20 21 22 19 17 15 14 14 17 18 18 19 19 19 19 18 19 17 18 18 14 11 13 14 15 17 16 13 15 15 12 14 14 15 15 16 17 16 16 18
22 22 21 21 20 19 16 14 12 13 15 14 15 17 19 17 14 14 15 16 15 15 14 14 11 12 13 15 15 17 13 16 16 15 14 15 16 15 15 16 16 13 14
22 21 19 18 17 16 14 12 11 13 11 12 13 13 11 10 10 12 15 14 16 11 12 5 8 11 12 12 14 12 14 16 12 13 15 16 16 14 15 16 16 16 16
20 18 18 16 15 13 11 11 11 10 10 10 10 8 8 8 9 12 11 12 7 6 5 7 10 11 9 10 19 14 15 17 14 14 16 16 15 14 13 14 14 15 15
16 16 15 14 13 11 11 10 10 9 8 8 10 7 5 6 9 9 10 14 8 2 1 9 10 10 10 13 15 15 16 17 18 16 17 18 16 15 15 14 16 14 17
15 15 13 13 11 11 10 10 10 9 7 8 10 6 5 7 6 7 11 8 6 3 3 8 9 11 14 14 12 12 12 15 16 17 19 19 19 16 12 11 12 11 11
15 13 13 12 11 10 10 10 9 9 7 9 9 6 4 4 3 5 3 6 6 1 7 11 11 14 15 14 12 12 13 16 19 19 19 19 20 18 15 16 14 11 11
13 12 10 9 10 10 9 9 9 8 7 9 11 6 3 4 2 2 5 6 5 5 9 12 11 14 14 13 12 13 14 15 15 15 16 16 16 20 20 16 15 14 11
14 12 9 10 9 9 10 10 10 10 9 10 11 7 4 3 0 4 5 7 6 6 8 9 9 11 14 14 14 15 15 14 14 14 13 12 12 12 16 13 14 16 12
11 9 9 7 6 8 9 10 11 11 11 12 12 9 5 3 3 2 3 6 5 6 6 7 9 13 15 15 16 16 14 13 14 14 13 9 10 14 15 16 14 17 13
10 9 7 6 7 9 9 8 9 12 13 12 11 8 6 4 5 5 3 5 4 5 7 8 11 12 14 14 14 13 13 14 14 13 13 11 10 14 14 14 15 15 15
10 8 7 7 9 11 10 10 7 7 12 13 12 10 7 4 6 7 7 5 6 5 8 8 10 13 14 14 13 12 11 12 13 14 13 12 9 10 17 18 15 16 18
11 8 6 5 7 7 8 10 9 8 9 11 12 9 5 8 5 8 9 6 7 7 7 8 9 9 9 8 8 9 9 10 11 11 10 10 11 10 13 14 16 17 17
10 8 6 8 6 7 8 10 12 11 12 13 11 8 7 9 7 8 9 6 4 6 8 9 9 9 8 9 9 9 9 10 10 9 11 13 11 10 16 18 19 17 15
13 6 6 6 6 10 10 10 11 12 13 12 10 10 10 11 10 10 9 8 8 7 8 11 11 11 11 12 12 8 7 7 10 13 13 13 14 17 16 17 17 15 13
14 9 8 7 9 10 12 14 14 14 12 10 11 12 13 12 11 11 11 11 9 9 9 9 10 13 14 14 9 5 8 9 10 10 10 10 13 18 20 18 17 17 15
15 10 9 10 10 11 13 13 16 13 11 11 11 11 12 13 13 12 13 14 13 11 11 10 10 11 11 8 7 9 11 10 9 8 9 9 11 14 16 17 18 18 17
15 12 11 10 8 12 13 15 15 13 11 11 11 11 11 11 9 9 9 8 7 5 4 6 7 5 5 6 6 6 7 8 7 7 8 9 10 12 14 16 17 18 19
15 13 11 12 13 12 11 13 13 13 11 9 8 8 8 7 8 7 5 6 5 4 4 4 6 7 7 7 7 7 8 8 8 8 8 8 10 11 13 16 18 19 22
16 17 17 14 13 13 13 13 12 11 10 9 9 8 8 9 9 9 8 6 7 8 7 6 8 9 9 7 7 8 9 8 8 7 9 12 15 17 18 19 21 24 26
15 18 16 16 15 13 12 12 11 14 12 12 12 12 11 10 9 8 8 8 10 10 9 10 9 7 7 8 9 11 12 13 14 15 16 17 18 19 21 23 26 29 31
19 17 15 13 22 17 18 15 15 15 16 16 15 14 14 13 11 11 9 9 11 10 11 10 9 9 10 11 12 13 15 16 18 20 22 23 25 27 29 31 32 34 36
Wind_Direction
244 247 247 250 253 255 256 255 260 265 267 268 274 279 281 284 284 287 289 291 293 296 294 290 289 294 299 301 255 232 202 196 168 161 150 162 181 175 165 174 178 185 179
243 245 244 246 248 250 249 253 259 261 262 267 272 277 284 291 281 281 287 289 295 294 294 290 286 286 295 272 226 213 200 205 214 155 160 165 177 184 183 169 173 179 170
238 235 237 243 244 242 245 250 253 256 263 264 272 283 287 287 279 280 284 292 291 297 293 291 288 283 267 232 223 206 203 197 187 178 166 178 188 190 179 169 171 176 171
226 229 235 234 232 241 245 250 249 257 257 268 282 283 281 279 276 282 286 286 292 297 298 299 283 267 225 215 211 201 205 204 196 177 164 178 171 169 174 170 163 164 171
225 225 228 230 235 240 242 240 247 250 267 279 280 275 276 273 270 274 279 286 298 295 299 283 278 220 198 214 212 191 191 192 191 195 176 170 169 175 173 174 171 168 172
217 219 220 227 234 240 236 241 238 261 276 278 279 276 272 270 264 269 283 293 292 296 299 297 234 209 192 209 205 182 193 190 190 198 187 179 172 175 172 170 158 162 168
206 213 220 228 230 224 226 230 251 267 268 270 273 271 269 266 267 280 295 302 303 294 292 263 179 186 192 204 194 187 187 180 181 181 180 178 168 168 166 166 168 163 162
203 211 217 217 216 215 217 236 257 252 261 264 263 258 255 255 271 292 301 317 307 294 293 201 193 187 180 186 186 178 171 178 177 170 171 174 171 166 167 173 171 172 180
204 211 210 209 207 207 227 247 235 249 243 260 252 232 245 267 287 292 304 326 327 319 264 199 202 184 174 172 167 177 179 181 180 174 167 166 173 175 175 170 170 179 168
197 196 195 199 204 214 230 220 231 233 235 248 237 224 247 279 289 303 316 324 323 267 147 181 167 172 169 171 176 178 180 187 186 179 172 170 173 177 175 178 174 181 190
188 185 193 197 208 216 220 226 223 215 226 225 218 215 251 276 294 320 337 349 353 163 154 151 164 167 179 179 184 187 181 178 179 183 183 180 173 171 178 190 188 185 181
170 189 191 202 212 215 223 227 220 205 211 216 203 211 247 240 319 74 22 22 46 119 137 152 166 176 172 166 171 176 181 176 183 185 185 189 183 173 178 180 188 191 185
175 181 191 207 210 218 222 219 211 194 200 206 200 215 233 213 51 93 38 34 68 113 118 137 148 165 167 171 171 168 172 174 179 181 177 180 196 191 190 186 179 179 189
171 185 196 199 212 208 208 199 193 191 195 197 198 207 215 210 225 188 56 45 71 98 123 133 149 159 161 165 169 169 172 175 172 168 166 167 178 178 187 182 178 175 190
178 186 182 189 192 184 177 180 198 207 197 196 190 196 200 196 208 179 147 64 83 117 119 146 156 164 159 162 168 170 172 175 180 182 178 180 177 180 179 181 186 192 185
175 178 183 184 173 171 189 204 217 212 181 179 179 186 180 194 187 176 172 96 100 122 139 138 147 154 155 157 161 163 171 181 183 179 181 188 199 201 189 186 175 172 167
172 173 183 173 160 178 198 197 192 188 179 179 179 179 185 174 162 163 166 127 95 113 132 166 168 164 158 156 155 162 175 184 183 187 196 204 198 185 173 166 163 165 162
158 161 166 156 158 169 174 186 182 180 177 177 175 180 176 166 158 157 161 155 111 122 129 159 166 162 156 153 153 148 137 133 142 166 183 178 176 179 164 164 161 166 172
147 154 139 138 157 166 160 170 166 164 166 169 171 172 161 155 146 151 145 138 140 134 135 138 152 157 153 151 153 151 157 153 148 143 148 163 169 167 182 182 184 186 187
153 146 125 147 152 150 135 142 147 152 156 161 164 163 153 144 142 152 150 143 140 129 126 135 150 151 153 159 167 157 146 145 141 146 160 179 183 176 182 193 202 207 218
152 141 143 141 143 142 138 151 149 147 155 156 157 152 151 153 154 160 159 161 155 149 144 141 152 154 153 154 155 158 161 160 161 170 176 186 197 201 206 210 219 227 234
159 164 142 131 150 144 152 151 147 146 156 162 158 153 150 142 152 158 156 149 145 146 149 144 140 140 147 162 172 184 185 196 208 217 218 218 216 219 223 227 233 240 247
171 180 168 153 155 155 157 160 169 163 161 168 172 166 157 158 142 126 140 132 134 134 146 168 171 171 168 179 183 183 189 194 199 206 208 220 230 238 243 248 250 253 253
189 192 191 185 164 153 155 168 165 155 171 172 164 169 174 159 161 160 155 156 163 155 158 167 167 167 164 169 187 191 194 204 223 236 253 264 260 255 251 248 251 253 257
209 210 198 202 176 172 162 157 164 163 172 171 176 177 175 182 169 173 174 181 186 192 193 193 199 197 212 223 229 235 240 243 248 253 259 263 267 267 270 270 269 270 271
209 216 218 211 163 176 183 198 188 195 193 188 194 196 202 209 206 211 217 216 220 224 225 226 228 236 241 247 254 262 268 272 275 277 279 279 278 278 278 278 277 276 276
Height
5720 5723 5725 5727 5731 5736 5738 5739 5741 5741 5741 5741 5741 5740 5738 5738 5736 5734 5733 5731 5730 5729 5727 5725 5724 5722 5720 5717 5718 5719 5721 5722 5722 5721 5723 5725 5728 5732 5734 5738 5742 5747 5751
5710 5714 5717 5721 5726 5729 5731 5732 5734 5734 5735 5735 5734 5733 5732 5731 5729 5728 5728 5727 5724 5723 5720 5719 5718 5716 5715 5714 5715 5716 5719 5722 5723 5723 5724 5726 5729 5733 5736 5739 5742 5745 5748
5702 5707 5712 5716 5719 5721 5724 5726 5727 5728 5729 5729 5728 5727 5727 5725 5723 5722 5722 5721 5719 5717 5715 5713 5711 5709 5710 5711 5713 5715 5718 5720 5722 5723 5724 5727 5729 5731 5734 5738 5742 5745 5749
5696 5701 5706 5710 5713 5715 5719 5720 5722 5723 5723 5723 5722 5721 5720 5719 5718 5717 5716 5715 5714 5711 5708 5706 5703 5703 5704 5707 5710 5713 5716 5718 5721 5722 5724 5726 5729 5732 5735 5739 5743 5746 5749
5691 5696 5700 5704 5707 5710 5712 5715 5716 5717 5717 5716 5716 5715 5714 5713 5713 5713 5712 5710 5709 5706 5703 5701 5700 5699 5701 5704 5707 5711 5714 5716 5719 5721 5724 5727 5730 5733 5736 5739 5743 5745 5749
5686 5690 5695 5699 5702 5704 5706 5709 5711 5712 5711 5711 5711 5710 5708 5708 5709 5709 5708 5706 5705 5701 5699 5697 5695 5697 5700 5703 5705 5708 5712 5715 5718 5720 5722 5726 5729 5732 5736 5738 5740 5744 5748
5680 5685 5690 5694 5697 5700 5703 5705 5706 5706 5706 5707 5706 5705 5705 5705 5705 5705 5704 5702 5699 5697 5696 5693 5694 5696 5699 5701 5705 5707 5710 5714 5718 5720 5722 5725 5728 5731 5734 5737 5741 5743 5747
5677 5682 5687 5690 5693 5696 5698 5700 5701 5701 5703 5703 5702 5703 5702 5702 5702 5702 5700 5699 5696 5694 5694 5693 5695 5696 5698 5701 5704 5707 5710 5714 5718 5720 5722 5726 5729 5732 5735 5738 5742 5744 5747
5674 5679 5682 5686 5689 5692 5693 5695 5697 5698 5699 5699 5699 5700 5700 5700 5700 5699 5698 5695 5693 5693 5692 5692 5694 5697 5699 5701 5703 5707 5710 5713 5717 5720 5723 5726 5730 5732 5735 5738 5741 5744 5747
5671 5676 5680 5683 5686 5688 5690 5692 5693 5695 5696 5696 5696 5697 5698 5698 5698 5698 5697 5694 5692 5691 5692 5692 5695 5697 5699 5702 5705 5708 5711 5714 5717 5720 5723 5725 5728 5731 5735 5738 5740 5743 5745
5669 5674 5677 5680 5682 5685 5686 5688 5690 5691 5693 5693 5694 5696 5697 5697 5698 5697 5695 5693 5691 5690 5692 5693 5695 5697 5700 5703 5706 5708 5711 5714 5717 5720 5722 5725 5727 5730 5733 5737 5740 5743 5747
5668 5671 5675 5677 5679 5681 5683 5684 5686 5688 5690 5691 5693 5695 5696 5697 5697 5697 5695 5693 5691 5691 5691 5694 5696 5698 5701 5704 5707 5709 5712 5715 5718 5721 5724 5727 5729 5730 5732 5735 5739 5743 5747
5667 5671 5673 5675 5676 5678 5679 5681 5682 5685 5688 5690 5692 5694 5696 5697 5697 5697 5696 5694 5693 5692 5693 5695 5697 5700 5702 5705 5707 5710 5713 5716 5719 5722 5725 5728 5730 5732 5735 5738 5740 5744 5746
5665 5668 5671 5672 5673 5675 5676 5678 5680 5683 5686 5688 5691 5693 5695 5696 5696 5697 5696 5695 5694 5694 5695 5697 5699 5701 5703 5706 5709 5712 5715 5717 5720 5723 5726 5728 5729 5732 5735 5738 5740 5743 5746
5663 5666 5668 5670 5671 5673 5674 5677 5680 5682 5684 5687 5690 5693 5695 5696 5696 5697 5697 5697 5696 5697 5697 5699 5701 5703 5705 5708 5711 5713 5715 5718 5721 5723 5726 5728 5731 5733 5735 5737 5739 5742 5745
5661 5664 5666 5668 5669 5671 5673 5676 5678 5680 5683 5686 5689 5692 5694 5695 5695 5696 5698 5699 5699 5699 5701 5703 5704 5706 5708 5710 5712 5714 5717 5719 5721 5724 5726 5728 5731 5732 5733 5736 5739 5742 5745
5660 5663 5664 5666 5668 5670 5673 5675 5678 5680 5682 5685 5689 5691 5693 5694 5695 5696 5698 5700 5700 5701 5703 5705 5707 5709 5711 5713 5715 5716 5717 5719 5722 5725 5727 5730 5732 5734 5737 5739 5741 5744 5747
5660 5663 5664 5665 5667 5670 5672 5674 5676 5679 5682 5685 5688 5691 5692 5694 5695 5696 5698 5700 5701 5703 5704 5706 5708 5710 5713 5715 5716 5718 5719 5720 5722 5723 5726 5729 5732 5735 5738 5740 5742 5745 5747
5661 5662 5664 5667 5668 5669 5671 5674 5676 5679 5683 5686 5688 5691 5693 5694 5696 5697 5699 5700 5702 5703 5705 5707 5709 5712 5714 5717 5719 5720 5721 5722 5723 5724 5727 5730 5733 5736 5738 5741 5743 5745 5747
5660 5664 5666 5668 5669 5671 5673 5675 5678 5681 5684 5687 5689 5692 5693 5695 5697 5699 5701 5702 5704 5705 5707 5709 5711 5713 5714 5717 5719 5720 5722 5723 5725 5727 5729 5731 5733 5735 5737 5739 5741 5743 5745
5661 5664 5667 5669 5671 5673 5675 5677 5680 5683 5686 5688 5690 5693 5694 5696 5697 5699 5701 5702 5704 5706 5708 5710 5713 5714 5716 5718 5720 5721 5722 5724 5726 5728 5729 5731 5733 5734 5736 5737 5739 5740 5741
5661 5664 5668 5671 5674 5674 5677 5679 5682 5684 5687 5689 5692 5694 5696 5698 5700 5702 5704 5707 5709 5711 5712 5713 5715 5717 5718 5718 5720 5721 5723 5725 5726 5728 5729 5730 5731 5733 5734 5734 5735 5735 5736
5663 5665 5669 5671 5674 5676 5679 5682 5684 5686 5688 5691 5694 5697 5699 5701 5703 5705 5707 5709 5711 5711 5712 5713 5714 5715 5716 5718 5719 5720 5722 5723 5725 5726 5727 5728 5728 5730 5731 5732 5731 5731 5730
5661 5665 5669 5672 5675 5678 5680 5682 5684 5687 5689 5692 5696 5698 5700 5702 5703 5705 5707 5709 5710 5711 5712 5713 5713 5715 5716 5717 5718 5720 5721 5722 5723 5724 5726 5727 5726 5726 5726 5725 5725 5724 5723
5661 5664 5670 5675 5677 5679 5680 5682 5686 5689 5691 5692 5695 5697 5700 5701 5703 5706 5707 5708 5709 5709 5711 5713 5714 5714 5716 5718 5719 5720 5720 5721 5722 5722 5722 5723 5722 5722 5721 5720 5719 5717 5716
5661 5664 5668 5669 5670 5677 5681 5681 5686 5688 5689 5690 5693 5696 5698 5700 5702 5703 5705 5707 5708 5709 5711 5712 5713 5714 5715 5716 5717 5717 5718 5718 5718 5718 5718 5718 5717 5716 5715 5714 5712 5710 5708